Wiscasset, ME

12:01 AM EST on February 07, 2016 (GMT -0500)
Wiscasset

Weather History for KIWI - April, 2014

Change the Weather History Date:

Sunday, April 6, 2014

  Actual Average Record
Temperature  
Mean Temperature 41 °F -  
Max Temperature 53 °F 47 °F 55 °F (1999)
Min Temperature 28 °F 27 °F 21 °F (2003)
Degree Days  
Heating Degree Days 24    
Moisture  
Dew Point 20 °F    
Average Humidity 47    
Maximum Humidity 78    
Minimum Humidity 22    
Precipitation  
Precipitation 0.00 in - - ()
Sea Level Pressure  
Sea Level Pressure 30.01 in    
Wind  
Wind Speed 6 mph (West)    
Max Wind Speed 10 mph    
Max Gust Speed 22 mph    
Visibility 10 miles    
Events      
Averages and records for this station are not official NWS values.
T = Trace of Precipitation, MM = Missing Value Source: NWS Daily Summary

Daily Weather History Graph

Daily Weather History Graph

Search for Another Location

Airport or City:

Trip Planner

Search our weather history database for the weather conditions in past years. The results will help you decide how hot, cold, wet, or windy it might be!

Date:

Astronomy

Apr. 06, 2014 Rise Set
Actual Time 6:11 AM EDT 7:11 PM EDT
Civil Twilight 5:41 AM EDT 7:41 PM EDT
Nautical Twilight 5:06 AM EDT 8:16 PM EDT
Astronomical Twilight 4:30 AM EDT 8:53 PM EDT
Moon 11:02 AM EDT (4/6) 1:12 AM EDT (4/6)
Length of Visible Light 13h 59m
Length of Day
13h 00m
Waxing Crescent, 43% of the Moon is Illuminated
Apr 6
Waxing Crescent
Apr 7
First Quarter
Apr 15
Full
Apr 22
Last Quarter
Apr 29
New

Hourly Weather History & Observations

Time (EDT) Temp. Windchill Dew Point Humidity Pressure Visibility Wind Dir Wind Speed Gust Speed Precip Events Conditions
12:53 AM 37.0 °F 32.4 °F 24.1 °F 59% 29.83 in 10.0 mi Variable 5.8 mph - N/A   Overcast
1:53 AM 37.0 °F 32.4 °F 25.0 °F 62% 29.85 in 10.0 mi Variable 5.8 mph - N/A   Overcast
2:53 AM 37.0 °F 32.4 °F 23.0 °F 57% 29.86 in 10.0 mi Variable 5.8 mph - N/A   Overcast
3:53 AM 37.0 °F 34.5 °F 21.9 °F 54% 29.88 in 10.0 mi Variable 3.5 mph 18.4 mph N/A   Overcast
4:53 AM 36.0 °F 32.1 °F 23.0 °F 59% 29.91 in 10.0 mi Variable 4.6 mph - N/A   Overcast
5:53 AM 36.0 °F 31.1 °F 21.9 °F 57% 29.93 in 10.0 mi Variable 5.8 mph - N/A   Overcast
6:53 AM 36.0 °F 31.1 °F 21.9 °F 57% 29.97 in 10.0 mi Variable 5.8 mph - N/A   Overcast
7:53 AM 37.9 °F - 21.0 °F 51% 30.00 in 10.0 mi North - - N/A   Mostly Cloudy
8:53 AM 39.0 °F 32.3 °F 21.0 °F 49% 30.02 in 10.0 mi West 10.4 mph 16.1 mph N/A   Clear
9:53 AM 41.0 °F 34.7 °F 19.9 °F 43% 30.03 in 10.0 mi WNW 10.4 mph 16.1 mph N/A   Clear
10:53 AM 44.1 °F 39.5 °F 21.0 °F 40% 30.04 in 10.0 mi West 8.1 mph 19.6 mph N/A   Clear
11:53 AM 45.0 °F 40.6 °F 19.9 °F 37% 30.03 in 10.0 mi West 8.1 mph 21.9 mph N/A   Clear
12:53 PM 46.0 °F 41.4 °F 19.0 °F 34% 30.02 in 10.0 mi West 9.2 mph 19.6 mph N/A   Clear
1:53 PM 48.9 °F - 19.0 °F 31% 30.02 in 10.0 mi WNW 10.4 mph 17.3 mph N/A   Clear
2:53 PM 50.0 °F - 17.1 °F 27% 30.02 in 10.0 mi West 8.1 mph 21.9 mph N/A   Clear
3:53 PM 51.1 °F - 15.1 °F 24% 30.02 in 10.0 mi West 10.4 mph 19.6 mph N/A   Clear
4:53 PM 52.0 °F - 14.0 °F 22% 30.02 in 10.0 mi Variable 5.8 mph 18.4 mph N/A   Clear
5:53 PM 52.0 °F - 15.1 °F 23% 30.04 in 10.0 mi West 9.2 mph - N/A   Clear
6:53 PM 50.0 °F - 16.0 °F 26% 30.05 in 10.0 mi WNW 3.5 mph - N/A   Clear
7:53 PM 41.0 °F - 19.9 °F 43% 30.08 in 10.0 mi Calm Calm - N/A   Clear
8:53 PM 36.0 °F - 21.9 °F 57% 30.10 in 10.0 mi Calm Calm - N/A   Clear
9:53 PM 32.0 °F - 24.1 °F 73% 30.12 in 10.0 mi Calm Calm - N/A   Clear
10:53 PM 30.9 °F - 23.0 °F 72% 30.15 in 10.0 mi Calm Calm - N/A   Clear
11:53 PM 28.9 °F - 23.0 °F 78% 30.16 in 10.0 mi Calm Calm - N/A   Clear